Dodge Center, MN

4:46 PM CDT on June 25, 2017 (GMT -0500)
Dodge Center

Weather History for KTOB - November, 2012

Change the Weather History Date:

Wednesday, November 21, 2012

  Actual Average (KRST) Record (KRST)
Temperature  
Mean Temperature 54 °F -  
Max Temperature 69 °F 35 °F 70 °F (2012)
Min Temperature 39 °F 19 °F -8 °F (1964)
Degree Days  
Heating Degree Days 11    
Growing Degree Days 4 (Base 50)    
Moisture  
Dew Point 39 °F    
Average Humidity 61    
Maximum Humidity 87    
Minimum Humidity 33    
Precipitation  
Precipitation 0.00 in - - ()
Sea Level Pressure  
Sea Level Pressure 29.93 in    
Wind  
Wind Speed 16 mph (SSW)    
Max Wind Speed 25 mph    
Max Gust Speed 30 mph    
Visibility 10 miles    
Events      
Averages and records for this station are not official NWS values.
T = Trace of Precipitation, MM = Missing Value Source: NWS Daily Summary

Daily Weather History Graph

Daily Weather History Graph

Search for Another Location

Airport or City:

Trip Planner

Search our weather history database for the weather conditions in past years. The results will help you decide how hot, cold, wet, or windy it might be!

Date:

Astronomy

Nov. 21, 2012 Rise Set
Actual Time 7:14 AM CST 4:39 PM CST
Civil Twilight 6:43 AM CST 5:11 PM CST
Nautical Twilight 6:07 AM CST 5:46 PM CST
Astronomical Twilight 5:33 AM CST 6:21 PM CST
Moon 1:08 PM CST (11/21) 12:21 AM CST (11/21)
Length of Visible Light 10h 28m
Length of Day
9h 24m
First Quarter, 62% of the Moon is Illuminated
Nov 21
First Quarter
Nov 28
Full
Dec 6
Last Quarter
Dec 13
New
Dec 19
First Quarter

Hourly Weather History & Observations

Time (CST) Temp. Windchill Dew Point Humidity Pressure Visibility Wind Dir Wind Speed Gust Speed Precip Events Conditions
12:14 AM 39.2 °F 31.6 °F 35.6 °F 87% 30.08 in 10.0 mi South 12.7 mph - N/A   Clear
12:34 AM 41.0 °F 34.3 °F 35.6 °F 81% 30.07 in 10.0 mi South 11.5 mph - N/A   Scattered Clouds
12:54 AM 42.8 °F 36.6 °F 37.4 °F 81% 30.07 in 10.0 mi South 11.5 mph - N/A   Clear
1:14 AM 41.0 °F 34.7 °F 35.6 °F 81% 30.07 in 10.0 mi South 10.4 mph - N/A   Clear
1:35 AM 42.8 °F 36.2 °F 35.6 °F 76% 30.06 in 10.0 mi South 12.7 mph - N/A   Clear
1:54 AM 42.8 °F 35.4 °F 35.6 °F 76% 30.06 in 10.0 mi SSW 15.0 mph - N/A   Clear
2:14 AM 44.6 °F 37.8 °F 35.6 °F 71% 30.06 in 10.0 mi SSW 15.0 mph - N/A   Scattered Clouds
2:35 AM 42.8 °F 35.4 °F 35.6 °F 76% 30.06 in 10.0 mi South 15.0 mph - N/A   Scattered Clouds
2:54 AM 42.8 °F 35.4 °F 37.4 °F 81% 30.05 in 10.0 mi South 15.0 mph - N/A   Clear
3:14 AM 44.6 °F 37.4 °F 37.4 °F 76% 30.04 in 10.0 mi South 16.1 mph - N/A   Clear
3:35 AM 42.8 °F 35.1 °F 35.6 °F 76% 30.04 in 10.0 mi South 16.1 mph - N/A   Clear
3:54 AM 42.8 °F 34.8 °F 35.6 °F 76% 30.03 in 10.0 mi South 17.3 mph - N/A   Clear
4:14 AM 42.8 °F 34.8 °F 35.6 °F 76% 30.03 in 10.0 mi South 17.3 mph - N/A   Scattered Clouds
4:35 AM 44.6 °F 36.9 °F 35.6 °F 71% 30.02 in 10.0 mi SSW 18.4 mph - N/A   Scattered Clouds
4:54 AM 44.6 °F 36.9 °F 35.6 °F 71% 30.02 in 10.0 mi South 18.4 mph - N/A   Scattered Clouds
5:14 AM 44.6 °F 36.6 °F 37.4 °F 76% 30.01 in 10.0 mi South 19.6 mph - N/A   Clear
5:35 AM 44.6 °F 36.6 °F 35.6 °F 71% 30.00 in 10.0 mi South 19.6 mph 25.3 mph N/A   Scattered Clouds
5:54 AM 44.6 °F 36.6 °F 37.4 °F 76% 30.00 in 10.0 mi South 19.6 mph - N/A   Clear
6:14 AM 46.4 °F 39.0 °F 37.4 °F 71% 30.00 in 10.0 mi SSW 19.6 mph - N/A   Clear
6:35 AM 44.6 °F 36.4 °F 37.4 °F 76% 29.99 in 10.0 mi SSW 20.7 mph - N/A   Scattered Clouds
6:54 AM 44.6 °F 36.9 °F 37.4 °F 76% 29.99 in 10.0 mi SSW 18.4 mph - N/A   Scattered Clouds
7:14 AM 44.6 °F 36.9 °F 37.4 °F 76% 29.99 in 10.0 mi SSW 18.4 mph - N/A   Scattered Clouds
7:35 AM 44.6 °F 37.4 °F 37.4 °F 76% 29.99 in 10.0 mi SSW 16.1 mph 24.2 mph N/A   Clear
7:54 AM 44.6 °F 37.2 °F 37.4 °F 76% 30.00 in 10.0 mi SSW 17.3 mph 21.9 mph N/A   Clear
8:14 AM 46.4 °F 39.5 °F 37.4 °F 71% 30.00 in 10.0 mi SW 17.3 mph 24.2 mph N/A   Clear
8:35 AM 46.4 °F 39.2 °F 37.4 °F 71% 29.99 in 10.0 mi SSW 18.4 mph - N/A   Clear
8:54 AM 46.4 °F 39.0 °F 37.4 °F 71% 29.99 in 10.0 mi SSW 19.6 mph - N/A   Clear
9:14 AM 48.2 °F - 39.2 °F 71% 29.99 in 10.0 mi SSW 21.9 mph 25.3 mph N/A   Clear
9:35 AM 51.8 °F - 39.2 °F 62% 29.99 in 10.0 mi SSW 18.4 mph 26.5 mph N/A   Clear
9:54 AM 51.8 °F - 39.2 °F 62% 29.99 in 10.0 mi SSW 17.3 mph 21.9 mph N/A   Clear
10:14 AM 53.6 °F - 41.0 °F 62% 29.98 in 10.0 mi SSW 16.1 mph - N/A   Clear
10:35 AM 55.4 °F - 41.0 °F 58% 29.98 in 10.0 mi SW 17.3 mph - N/A   Clear
11:14 AM 57.2 °F - 42.8 °F 59% 29.97 in 10.0 mi SSW 15.0 mph - N/A   Clear
11:35 AM 60.8 °F - 39.2 °F 45% 29.96 in 10.0 mi SW 17.3 mph - N/A   Clear
11:54 AM 60.8 °F - 39.2 °F 45% 29.95 in 10.0 mi SW 18.4 mph - N/A   Clear
12:14 PM 60.8 °F - 39.2 °F 45% 29.94 in 10.0 mi SW 18.4 mph - N/A   Clear
12:35 PM 62.6 °F - 39.2 °F 42% 29.93 in 10.0 mi SSW 19.6 mph - N/A   Clear
12:54 PM 64.4 °F - 39.2 °F 40% 29.92 in 10.0 mi SW 20.7 mph 24.2 mph N/A   Clear
1:14 PM 64.4 °F - 39.2 °F 40% 29.91 in 10.0 mi SW 19.6 mph 24.2 mph N/A   Clear
1:35 PM 66.2 °F - 39.2 °F 37% 29.90 in 10.0 mi SSW 18.4 mph 25.3 mph N/A   Clear
1:54 PM 69.8 °F - 39.2 °F 33% 29.90 in 10.0 mi SSW 23.0 mph - N/A   Clear
2:14 PM 69.8 °F - 39.2 °F 33% 29.90 in 10.0 mi SSW 17.3 mph 25.3 mph N/A   Clear
2:35 PM 68.0 °F - 39.2 °F 35% 29.90 in 10.0 mi SSW 18.4 mph 25.3 mph N/A   Clear
2:54 PM 68.0 °F - 39.2 °F 35% 29.89 in 10.0 mi SSW 16.1 mph 23.0 mph N/A   Clear
3:14 PM 68.0 °F - 39.2 °F 35% 29.88 in 10.0 mi SSW 18.4 mph - N/A   Clear
3:35 PM 68.0 °F - 39.2 °F 35% 29.88 in 10.0 mi SSW 12.7 mph - N/A   Clear
3:59 PM 66.2 °F - 41.0 °F 40% 29.88 in 10.0 mi SSW 11.5 mph - N/A   Clear
4:14 PM 64.4 °F - 41.0 °F 42% 29.88 in 10.0 mi SSW 11.5 mph - N/A   Clear
4:35 PM 64.4 °F - 39.2 °F 40% 29.87 in 10.0 mi SSW 10.4 mph - N/A   Clear
4:54 PM 62.6 °F - 41.0 °F 45% 29.87 in 10.0 mi SSW 12.7 mph - N/A   Clear
5:14 PM 62.6 °F - 42.8 °F 48% 29.87 in 10.0 mi SSW 17.3 mph - N/A   Clear
5:35 PM 62.6 °F - 42.8 °F 48% 29.86 in 10.0 mi SSW 16.1 mph - N/A   Clear
5:54 PM 59.0 °F - 41.0 °F 51% 29.86 in 10.0 mi South 12.7 mph - N/A   Clear
6:14 PM 55.4 °F - 41.0 °F 58% 29.86 in 10.0 mi South 13.8 mph - N/A   Clear
6:35 PM 59.0 °F - 42.8 °F 55% 29.85 in 10.0 mi South 17.3 mph - N/A   Scattered Clouds
6:54 PM 59.0 °F - 42.8 °F 55% 29.85 in 10.0 mi South 19.6 mph - N/A   Clear
7:14 PM 55.4 °F - 42.8 °F 63% 29.85 in 10.0 mi South 17.3 mph - N/A   Clear
7:34 PM 57.2 °F - 44.6 °F 63% 29.85 in 10.0 mi South 18.4 mph - N/A   Clear
7:54 PM 57.2 °F - 44.6 °F 63% 29.85 in 10.0 mi South 20.7 mph - N/A   Clear
8:14 PM 57.2 °F - 44.6 °F 63% 29.84 in 10.0 mi South 20.7 mph 26.5 mph N/A   Clear
8:35 PM 57.2 °F - 42.8 °F 59% 29.83 in 10.0 mi South 23.0 mph 27.6 mph N/A   Scattered Clouds
8:54 PM 55.4 °F - 42.8 °F 63% 29.83 in 10.0 mi South 24.2 mph - N/A   Clear
9:14 PM 55.4 °F - 42.8 °F 63% 29.82 in 10.0 mi South 25.3 mph - N/A   Clear
9:35 PM 55.4 °F - 41.0 °F 58% 29.82 in 10.0 mi South 24.2 mph - N/A   Scattered Clouds
9:54 PM 55.4 °F - 41.0 °F 58% 29.82 in 10.0 mi South 25.3 mph 28.8 mph N/A   Clear
10:15 PM 55.4 °F - 41.0 °F 58% 29.81 in 10.0 mi South 24.2 mph 29.9 mph N/A   Clear
10:34 PM 53.6 °F - 41.0 °F 62% 29.80 in 10.0 mi South 23.0 mph 29.9 mph N/A   Scattered Clouds
10:54 PM 53.6 °F - 41.0 °F 62% 29.79 in 10.0 mi South 24.2 mph 28.8 mph N/A   Clear
11:15 PM 53.6 °F - 41.0 °F 62% 29.79 in 10.0 mi South 23.0 mph - N/A   Clear
11:34 PM 51.8 °F - 41.0 °F 67% 29.78 in 10.0 mi South 20.7 mph - N/A   Clear
11:54 PM 53.6 °F - 41.0 °F 62% 29.78 in 10.0 mi South 23.0 mph 27.6 mph N/A   Clear